Temp
68 58 52 57 61 64 63 59 56 57 66 61 59 59 62 66 64 64 64 65 67 68 70 70 70 68 66 67 66 63 61 64 63 62 59 60 61 61 60 62 63 62 62 63
61 54 63 68 67 64 63 58 55 60 66 60 56 55 61 65 63 65 63 64 65 66 66 67 66 65 64 63 62 61 61 61 61 61 60 61 61 61 60 61 61 61 61 61
56 61 70 67 62 60 59 55 55 55 61 59 57 53 58 64 66 68 66 65 65 64 63 64 63 61 62 58 60 62 62 63 62 61 63 61 60 59 59 59 59 61 59 59
61 67 66 64 61 60 54 61 60 59 53 45 56 41 52 59 60 63 63 62 62 63 64 64 62 59 59 58 60 62 63 64 65 62 59 57 55 54 56 55 55 55 56 56
57 60 60 59 60 63 57 61 58 57 51 48 53 45 51 60 55 57 58 61 59 60 60 61 60 61 60 60 59 60 62 63 64 62 59 56 55 55 55 54 52 52 53 54
61 66 62 60 65 64 65 59 58 55 51 37 51 48 46 51 56 57 60 61 61 60 60 61 61 62 60 60 60 62 62 62 62 61 59 57 55 54 52 50 49 50 50 51
60 60 62 66 58 62 59 51 35 33 32 32 54 50 46 55 59 60 58 57 58 59 59 59 62 61 59 58 58 59 60 62 61 59 57 55 53 52 50 49 48 50 51 48
48 44 58 64 58 53 54 51 32 31 29 34 52 43 45 58 61 61 61 60 60 60 60 59 61 60 61 63 60 59 61 61 60 56 54 53 52 51 54 54 53 49 46 46
48 49 61 63 63 59 55 45 54 40 35 30 43 49 55 59 60 61 60 61 58 58 59 61 64 64 62 61 57 57 57 57 56 54 52 52 54 55 53 53 47 45 45 50
55 46 59 62 62 62 56 59 41 38 30 30 40 42 42 52 54 59 57 58 57 60 59 59 59 57 56 56 54 54 54 54 54 53 53 55 54 54 52 46 45 45 45 45
54 50 50 58 53 51 52 49 50 48 37 29 26 36 52 53 55 55 57 56 55 55 55 55 55 56 55 55 54 52 53 53 52 53 55 54 52 49 47 46 45 45 45 45
54 48 36 49 58 60 56 52 50 31 35 32 30 34 53 54 56 56 57 57 55 55 55 54 55 55 54 52 53 53 52 51 52 53 51 51 50 49 47 46 46 45 45 45
52 46 33 42 50 56 52 55 53 46 36 34 24 33 59 57 56 59 54 54 55 54 54 52 52 53 53 52 52 52 51 51 53 53 50 49 51 47 45 45 45 45 44 43
53 51 42 33 43 49 45 51 52 45 30 33 34 43 50 50 51 52 52 52 51 52 52 51 51 51 51 52 51 51 51 51 51 51 49 48 47 47 45 46 45 45 45 43
52 41 46 48 51 52 50 49 50 47 46 35 40 45 49 49 52 51 52 52 52 51 51 51 50 49 50 50 50 51 50 50 51 49 49 47 46 46 43 43 45 45 44 43
52 36 37 37 48 48 43 47 47 49 50 48 48 46 52 52 53 51 50 50 49 50 50 50 51 51 51 51 50 51 49 49 50 50 51 49 45 44 44 45 44 43 42 41
45 37 32 31 40 37 30 41 48 49 50 48 38 46 50 48 49 46 46 48 48 48 48 49 50 51 50 49 50 47 48 49 48 49 49 46 44 43 43 44 43 42 41 39
40 36 31 26 28 22 45 54 53 49 50 51 50 48 48 48 47 47 48 46 46 48 49 50 49 49 49 48 47 47 48 48 46 45 46 45 43 42 43 42 42 40 40 37
49 35 26 27 26 36 45 50 47 43 42 50 47 47 48 50 49 44 50 49 47 47 49 49 49 49 47 46 47 47 46 46 45 44 43 43 42 42 41 39 40 39 36 33
46 39 31 28 20 19 39 52 55 52 31 49 48 45 45 45 31 38 47 49 48 50 50 49 49 48 46 46 47 45 45 44 43 43 43 43 41 41 39 40 40 36 36 33
28 28 25 30 19 31 46 54 55 32 34 46 47 45 43 39 40 44 47 48 50 50 50 50 48 46 45 46 46 44 43 42 44 44 43 43 42 41 40 39 37 35 31 30
31 27 29 31 24 23 52 51 39 43 47 47 46 45 45 44 45 47 48 49 50 48 48 49 45 45 46 47 45 44 42 44 44 42 42 40 40 41 42 37 35 32 29 28
35 38 33 35 33 46 52 50 51 49 47 45 47 50 47 46 47 48 47 48 48 47 46 47 44 44 45 45 45 42 42 43 41 39 38 38 39 40 39 35 31 29 28 23
46 51 36 40 47 50 50 51 52 50 48 49 50 50 50 47 47 47 47 46 45 44 43 44 44 43 42 44 45 42 42 41 39 37 36 36 34 34 34 34 31 28 22 20
44 48 45 40 48 49 48 49 49 50 51 50 53 52 50 48 46 46 44 44 43 42 43 43 42 42 43 42 41 41 41 40 37 36 34 31 30 31 31 32 29 27 26 24
49 45 37 35 48 46 44 48 52 50 51 52 50 48 50 48 45 45 42 42 42 41 42 42 42 42 41 40 39 41 40 37 34 32 30 28 27 26 29 29 28 32 30 32
MSLP
1008.88 1009.91 1010.29 1010.24 1010.11 1010.06 1010.12 1010.44 1010.75 1010.84 1010.66 1010.90 1011.13 1011.97 1012.13 1012.03 1012.24 1012.66 1013.41 1013.67 1014.47 1014.99 1015.65 1015.98 1016.58 1016.80 1016.97 1018.01 1018.92 1019.47 1019.83 1020.11 1020.10 1020.37 1020.20 1020.47 1020.73 1020.87 1021.07 1020.86 1020.79 1020.69 1020.65 1020.58
1009.95 1010.51 1010.40 1010.30 1010.38 1010.42 1010.42 1010.84 1011.66 1011.44 1011.21 1011.40 1011.75 1012.59 1012.51 1012.70 1013.41 1013.75 1014.59 1015.05 1015.42 1015.88 1016.50 1017.12 1017.66 1017.93 1018.77 1019.52 1019.99 1020.55 1020.72 1020.36 1020.47 1020.55 1020.66 1020.67 1020.82 1021.02 1020.74 1020.60 1020.78 1021.19 1021.10 1020.70
1010.44 1010.92 1010.50 1010.42 1010.80 1011.22 1011.52 1011.90 1012.10 1012.25 1012.00 1011.81 1012.31 1013.58 1013.36 1013.65 1013.97 1014.43 1015.23 1015.91 1016.31 1016.79 1017.50 1018.20 1018.83 1019.46 1019.80 1020.24 1020.45 1020.40 1020.56 1020.65 1020.75 1020.76 1020.68 1020.84 1021.05 1021.29 1021.44 1021.45 1021.34 1021.31 1021.19 1020.88
1011.02 1011.02 1010.87 1010.93 1011.45 1011.87 1012.18 1012.50 1012.67 1012.94 1013.28 1013.23 1012.96 1014.70 1014.47 1014.46 1015.08 1015.52 1016.26 1016.97 1017.60 1018.11 1018.62 1019.01 1019.60 1020.18 1020.51 1020.76 1020.60 1020.67 1020.79 1020.92 1021.12 1021.23 1021.29 1021.77 1022.28 1022.44 1022.28 1022.00 1021.86 1022.01 1021.69 1021.43
1011.74 1011.72 1011.62 1011.65 1012.17 1012.31 1012.86 1012.85 1013.19 1013.59 1014.09 1014.32 1013.87 1014.68 1015.42 1015.36 1016.23 1016.65 1017.17 1017.77 1018.39 1018.90 1019.46 1020.03 1020.25 1020.67 1020.85 1020.98 1021.08 1021.02 1021.05 1021.05 1021.09 1021.25 1021.51 1021.97 1022.31 1022.11 1021.95 1022.22 1022.47 1022.48 1022.21 1021.93
1011.97 1012.05 1012.35 1012.45 1012.34 1012.39 1012.71 1013.25 1013.73 1014.41 1015.14 1015.77 1015.25 1015.22 1016.23 1016.14 1016.51 1017.23 1017.73 1018.29 1018.93 1019.23 1019.76 1020.09 1020.43 1020.74 1021.03 1021.00 1020.95 1020.84 1021.05 1021.21 1021.21 1021.27 1021.55 1021.80 1022.11 1022.32 1022.60 1022.65 1022.66 1022.59 1022.51 1022.33
1012.73 1012.90 1012.82 1012.70 1012.63 1012.88 1013.24 1013.90 1015.12 1016.45 1017.14 1017.28 1015.98 1016.37 1017.40 1016.93 1016.92 1017.34 1018.20 1018.87 1019.39 1019.75 1020.16 1020.54 1020.68 1021.01 1021.23 1021.25 1021.27 1021.32 1021.25 1021.25 1021.29 1021.37 1021.82 1022.27 1022.54 1022.64 1022.88 1023.00 1022.99 1022.71 1022.62 1022.79
1013.30 1013.87 1013.52 1013.57 1013.51 1013.80 1014.01 1014.80 1016.50 1018.11 1019.31 1018.79 1017.10 1017.80 1018.48 1017.62 1017.75 1018.09 1018.45 1018.83 1019.38 1019.77 1020.22 1020.51 1020.56 1020.86 1021.16 1021.13 1021.38 1021.47 1021.50 1021.61 1021.76 1022.19 1022.47 1022.66 1022.80 1022.71 1022.90 1022.49 1022.94 1023.09 1023.24 1023.34
1013.98 1014.55 1014.39 1014.10 1013.87 1014.07 1014.56 1015.66 1016.59 1018.51 1019.92 1020.41 1019.43 1019.37 1018.49 1017.97 1018.13 1018.29 1018.64 1019.06 1019.63 1019.87 1020.15 1020.44 1020.85 1021.40 1021.93 1022.25 1022.19 1022.16 1022.16 1022.43 1022.48 1022.62 1022.78 1022.70 1022.57 1022.40 1022.89 1023.05 1023.22 1023.31 1023.40 1023.17
1014.62 1015.05 1014.90 1014.57 1014.45 1014.45 1014.92 1015.86 1017.23 1019.05 1021.14 1021.61 1020.64 1019.87 1019.17 1018.81 1018.76 1018.84 1019.28 1019.65 1019.89 1020.25 1020.80 1021.31 1021.66 1022.14 1022.35 1022.47 1022.69 1022.77 1022.77 1022.89 1023.07 1023.00 1022.88 1022.77 1022.67 1022.50 1022.74 1023.12 1023.12 1023.17 1023.34 1023.25
1015.35 1015.51 1015.84 1015.29 1015.54 1015.54 1015.70 1016.44 1017.88 1019.52 1021.48 1022.57 1022.25 1021.17 1019.24 1019.67 1019.53 1019.70 1019.82 1020.55 1021.00 1021.45 1021.83 1022.27 1022.48 1022.58 1022.77 1022.89 1023.03 1023.17 1023.14 1022.96 1022.95 1022.75 1022.62 1022.53 1022.51 1022.53 1022.54 1022.50 1022.40 1022.45 1022.63 1022.64
1016.31 1016.64 1016.88 1016.74 1016.27 1015.94 1016.15 1017.11 1018.52 1020.89 1022.73 1023.16 1022.83 1021.76 1020.15 1019.78 1019.77 1020.14 1020.78 1021.08 1021.33 1021.77 1022.30 1022.60 1022.80 1023.00 1023.05 1023.26 1022.90 1023.23 1023.05 1022.89 1022.62 1022.35 1022.34 1022.33 1022.27 1022.15 1021.89 1021.96 1021.98 1021.85 1022.08 1022.32
1017.19 1017.48 1017.99 1017.93 1017.52 1016.82 1016.82 1017.58 1018.87 1020.62 1022.17 1023.21 1023.35 1021.76 1020.00 1019.56 1019.63 1020.26 1021.18 1021.52 1021.90 1022.27 1022.80 1023.22 1023.43 1023.28 1023.30 1023.07 1023.10 1023.11 1022.94 1022.70 1022.37 1022.20 1022.19 1022.19 1022.25 1021.97 1022.00 1021.94 1022.05 1021.97 1021.89 1022.18
1017.66 1018.07 1018.77 1018.90 1018.45 1017.99 1017.92 1018.17 1018.84 1020.10 1021.81 1022.23 1022.02 1021.13 1020.11 1020.36 1020.93 1021.47 1021.86 1022.19 1022.59 1023.01 1023.58 1023.80 1023.81 1023.81 1023.55 1023.31 1023.20 1023.14 1023.01 1022.65 1022.35 1022.11 1021.94 1021.77 1021.61 1021.56 1021.61 1021.70 1022.24 1022.45 1022.03 1021.97
1018.45 1019.58 1019.87 1019.78 1019.41 1018.99 1018.79 1018.81 1019.07 1019.53 1020.08 1020.94 1020.71 1020.67 1021.02 1021.17 1021.59 1022.16 1022.50 1022.83 1023.25 1023.65 1023.88 1024.03 1024.08 1023.63 1023.45 1023.43 1023.34 1023.19 1023.02 1022.77 1022.39 1022.24 1022.05 1021.48 1021.15 1021.59 1022.17 1022.43 1022.15 1022.30 1021.54 1021.40
1019.32 1020.81 1021.34 1021.48 1020.89 1020.44 1019.95 1019.42 1019.13 1019.14 1019.29 1019.55 1019.87 1020.31 1020.60 1021.19 1021.60 1022.34 1022.92 1023.40 1023.77 1024.08 1023.95 1023.87 1023.72 1023.54 1023.47 1023.43 1023.18 1023.02 1023.12 1023.03 1022.62 1022.43 1021.95 1021.46 1021.74 1021.81 1021.80 1022.06 1021.93 1021.41 1021.25 1021.01
1020.67 1022.16 1023.25 1023.44 1022.67 1021.83 1020.98 1019.48 1018.88 1018.72 1018.83 1019.26 1020.02 1020.41 1021.22 1021.78 1022.34 1023.05 1023.51 1023.71 1023.91 1023.97 1023.82 1023.89 1023.66 1023.47 1023.41 1023.24 1023.25 1023.31 1023.18 1022.79 1022.53 1022.28 1022.24 1022.29 1022.17 1021.87 1021.84 1021.50 1021.81 1021.43 1021.12 1020.89
1021.61 1023.10 1024.44 1025.19 1024.20 1023.25 1020.41 1019.17 1018.59 1018.87 1019.30 1019.68 1020.43 1021.28 1021.61 1022.13 1022.89 1023.24 1023.52 1023.71 1023.69 1023.65 1023.66 1023.53 1023.52 1023.51 1023.33 1023.36 1023.33 1023.23 1022.85 1022.59 1022.28 1022.49 1022.43 1022.22 1022.02 1021.89 1021.75 1021.73 1021.66 1021.28 1020.84 1020.82
1021.85 1023.76 1025.95 1026.42 1025.73 1023.42 1020.59 1019.40 1019.17 1019.41 1020.20 1020.35 1021.01 1021.57 1022.01 1022.41 1022.98 1023.62 1023.53 1023.36 1023.37 1023.43 1023.36 1023.35 1023.32 1023.27 1023.33 1023.28 1023.18 1022.97 1022.69 1022.41 1022.37 1022.34 1022.22 1022.16 1022.07 1021.83 1021.73 1021.92 1021.39 1020.88 1020.87 1021.15
1023.17 1024.15 1025.64 1026.74 1026.42 1024.28 1021.11 1019.78 1019.39 1019.74 1020.80 1021.03 1021.35 1021.96 1022.44 1022.70 1023.35 1023.61 1023.28 1023.19 1023.12 1023.04 1023.07 1023.16 1023.14 1023.13 1023.19 1023.17 1022.89 1022.68 1022.48 1022.33 1022.45 1022.41 1022.28 1022.11 1021.94 1021.73 1021.60 1021.33 1020.92 1020.97 1020.97 1021.47
1024.42 1025.32 1026.13 1026.51 1025.79 1023.36 1020.53 1019.68 1019.50 1020.59 1021.19 1021.13 1021.52 1022.04 1022.52 1023.13 1023.49 1023.45 1023.24 1023.10 1022.90 1022.85 1022.92 1022.90 1022.99 1023.26 1023.17 1022.83 1022.50 1022.22 1022.09 1022.21 1022.18 1022.14 1021.99 1021.85 1021.59 1021.40 1021.13 1021.11 1021.02 1021.00 1021.45 1021.71
1023.69 1024.78 1025.38 1025.41 1024.71 1022.15 1019.54 1019.55 1019.89 1020.25 1020.45 1020.99 1021.51 1021.97 1022.40 1022.88 1023.17 1023.25 1023.12 1022.88 1022.86 1022.91 1023.00 1022.95 1023.14 1023.16 1022.79 1022.38 1022.33 1022.37 1022.39 1022.22 1022.10 1021.98 1021.83 1021.78 1021.59 1021.32 1021.09 1021.07 1021.04 1021.44 1021.70 1022.01
1022.16 1021.63 1022.17 1022.65 1021.44 1019.58 1018.74 1018.68 1018.89 1019.44 1020.23 1020.98 1021.28 1021.68 1022.13 1022.60 1022.80 1022.96 1022.96 1022.90 1023.04 1023.13 1023.17 1023.12 1023.14 1022.90 1022.64 1022.45 1022.42 1022.45 1022.44 1022.23 1022.11 1021.99 1022.00 1021.84 1021.59 1021.40 1021.23 1021.34 1021.56 1021.73 1021.90 1022.13
1019.73 1019.57 1020.18 1020.33 1019.31 1018.69 1018.58 1018.59 1018.83 1019.42 1020.12 1020.66 1021.10 1021.52 1021.87 1022.29 1022.53 1022.71 1023.00 1023.13 1023.25 1023.33 1023.38 1023.19 1023.07 1023.00 1022.80 1022.52 1022.41 1022.37 1022.16 1021.94 1021.79 1021.97 1022.12 1022.01 1021.98 1021.77 1021.54 1021.53 1021.66 1021.96 1022.08 1022.30
1019.18 1018.65 1018.80 1019.06 1018.56 1018.48 1018.89 1018.91 1019.34 1019.77 1020.16 1020.55 1020.76 1021.08 1021.61 1022.13 1022.55 1022.93 1023.31 1023.40 1023.57 1023.65 1023.50 1023.37 1023.27 1023.09 1022.83 1022.62 1022.50 1022.25 1021.91 1021.66 1021.82 1022.04 1022.23 1022.28 1022.23 1022.05 1021.83 1021.75 1021.98 1022.11 1022.15 1022.27
1018.31 1017.97 1018.36 1018.03 1018.04 1018.33 1019.05 1019.26 1019.49 1019.86 1020.23 1020.57 1020.87 1021.42 1021.73 1022.23 1022.86 1023.16 1023.52 1023.70 1023.76 1023.70 1023.62 1023.46 1023.36 1023.19 1022.92 1022.69 1022.50 1022.21 1021.80 1021.58 1021.78 1022.04 1022.28 1022.38 1022.34 1022.27 1022.11 1022.14 1022.26 1022.20 1022.04 1022.00
Wind_Speed
6 7 3 3 3 4 5 5 10 4 5 2 2 5 8 13 12 11 10 14 16 17 16 18 19 19 19 17 15 9 6 4 1 1 4 3 3 2 3 4 6 6 5 5
6 6 3 5 5 6 5 7 6 4 3 4 2 2 8 10 9 15 11 15 15 15 17 18 19 18 14 11 10 9 6 7 6 3 2 3 2 2 2 1 4 6 4 5
8 1 4 3 9 9 10 6 5 4 7 5 2 2 8 7 12 17 16 11 10 14 15 15 16 13 12 8 8 9 8 8 7 5 4 4 4 4 4 4 4 6 7 7
7 1 4 8 8 7 5 6 5 6 5 3 5 1 4 12 13 15 14 16 15 14 13 12 11 9 9 7 8 8 7 7 6 6 6 5 2 2 2 2 3 5 7 7
3 8 9 9 4 5 3 0 3 3 4 3 7 6 2 13 12 9 8 11 11 10 11 11 10 9 7 8 6 5 5 4 4 4 5 3 0 2 2 4 5 6 6 6
4 5 5 5 4 2 5 4 5 3 2 3 7 6 3 5 9 6 8 9 8 9 9 9 9 8 5 4 3 2 5 3 3 1 2 2 1 5 5 4 4 3 3 4
6 5 3 4 4 2 6 7 4 4 5 4 6 8 2 7 7 8 10 9 9 9 8 8 8 7 5 5 2 0 4 5 6 6 6 8 7 7 6 3 2 4 3 3
6 4 6 8 5 2 5 5 6 2 1 5 8 5 0 9 9 10 9 9 8 8 7 7 6 5 3 3 6 4 3 4 9 9 7 6 6 3 2 4 3 4 4 3
4 3 3 5 3 4 6 6 2 6 1 4 3 4 4 8 7 8 7 7 8 9 8 6 11 12 9 6 6 8 8 9 8 7 5 6 5 3 4 4 6 4 4 5
5 5 3 3 1 5 6 2 6 5 2 3 3 3 3 3 4 5 5 6 3 6 9 11 10 7 7 7 7 8 7 6 5 5 4 4 5 4 5 5 6 5 3 3
5 4 3 2 5 4 5 3 4 3 5 4 1 4 3 10 7 7 8 11 11 9 8 8 6 6 6 6 6 6 5 4 4 4 4 3 3 4 5 5 5 5 2 2
3 5 4 3 2 2 1 4 5 6 3 1 5 6 4 8 9 9 10 8 7 7 7 6 7 7 6 5 6 6 6 5 3 4 4 4 0 2 3 3 3 3 1 2
3 2 4 5 5 5 2 4 5 6 4 3 6 6 3 8 7 0 5 7 8 8 9 8 8 7 6 7 7 7 6 4 4 4 4 4 4 3 5 3 3 2 2 2
3 3 6 6 3 1 2 4 2 7 4 5 7 7 7 7 6 7 7 7 8 8 8 6 7 7 6 5 6 6 7 6 6 5 4 5 7 7 3 4 4 3 3 3
4 4 4 5 5 4 3 4 5 5 6 7 9 7 9 8 8 5 5 7 8 7 6 6 6 6 6 5 6 6 7 7 8 7 8 9 4 5 3 4 3 5 7 2
4 1 2 2 6 8 4 7 7 7 7 6 3 5 10 7 6 6 7 8 7 6 7 6 7 7 5 5 5 6 7 7 7 10 13 7 4 3 2 4 7 6 2 2
3 4 3 3 4 5 5 4 3 1 1 1 1 1 6 8 9 8 8 6 5 5 6 6 7 6 5 6 6 6 6 6 7 11 11 5 4 5 4 6 6 3 5 3
4 4 3 3 4 2 5 4 1 5 5 7 10 11 10 7 7 8 7 5 4 3 5 7 5 4 6 4 5 4 5 6 6 6 7 6 4 5 5 5 4 5 4 4
5 5 4 3 1 6 7 2 4 4 4 7 8 7 6 5 5 4 5 3 1 3 4 3 2 2 3 5 5 6 6 6 5 5 5 4 4 6 7 10 10 6 3 2
7 6 6 2 5 7 7 4 6 3 4 3 7 5 4 2 2 4 6 5 2 5 4 3 4 4 6 6 5 5 6 5 4 5 4 3 4 3 4 7 9 3 2 5
3 3 5 3 3 8 9 4 5 5 8 3 5 4 3 1 5 4 7 2 4 3 4 5 5 3 4 6 6 6 5 4 2 2 4 5 5 6 7 4 2 3 6 5
8 7 5 3 2 9 7 4 8 7 4 7 5 5 3 1 4 6 3 5 6 5 6 5 4 4 6 7 6 6 5 4 4 4 5 5 6 5 4 4 4 6 5 5
2 9 8 10 9 8 6 8 5 6 5 5 5 4 2 3 4 3 3 5 4 5 5 4 5 7 7 6 6 5 4 5 5 5 5 5 6 5 5 5 5 3 4 3
3 6 4 5 6 6 7 4 6 6 8 7 6 4 3 5 2 3 4 4 5 6 6 5 7 6 6 6 5 2 3 3 3 4 5 5 5 5 5 4 3 4 2 3
6 2 2 3 3 5 6 7 7 7 5 6 6 5 3 2 4 4 5 6 5 5 5 5 6 7 9 6 6 6 6 2 3 3 4 5 4 5 4 3 3 2 1 3
4 6 4 7 4 5 4 6 7 5 6 6 5 5 5 7 6 6 5 3 4 6 6 7 8 10 8 5 6 10 8 3 3 1 2 2 2 3 4 4 3 3 3 2
Wind_Direction
257 76 126 100 16 319 359 28 111 101 84 70 293 119 95 63 50 63 70 66 74 69 61 59 57 77 79 86 97 94 88 2 283 80 72 50 87 64 75 63 80 75 58 35
37 76 1 299 59 10 334 39 35 90 90 101 9 120 104 80 71 66 73 83 84 80 71 62 57 53 63 74 77 89 95 54 41 47 42 78 80 130 150 79 63 47 26 337
98 120 275 21 49 22 51 67 19 20 338 336 35 48 97 83 83 69 60 65 74 90 85 74 65 58 61 58 79 80 76 70 62 61 49 23 18 11 11 6 6 340 3 32
91 248 337 70 54 33 66 15 360 331 18 256 106 50 130 111 91 80 75 68 64 73 78 80 77 64 60 53 59 83 91 81 75 67 62 56 45 2 306 265 338 15 24 27
48 51 34 55 38 19 147 324 274 309 305 360 315 80 221 107 87 88 84 88 84 86 93 92 90 85 68 56 52 65 70 91 118 116 111 92 249 234 312 19 57 26 11 20
95 87 46 356 305 235 275 280 250 240 156 36 298 113 297 94 134 111 103 92 93 100 109 117 110 109 121 119 101 76 50 32 355 348 81 244 326 36 62 47 42 12 358 17
92 76 139 360 323 35 19 31 4 4 22 215 308 64 26 58 93 114 106 94 97 97 98 111 127 143 159 146 211 90 62 30 51 96 67 69 75 71 85 65 19 12 25 15
128 11 5 344 65 356 317 80 126 68 60 282 333 85 107 92 91 99 122 142 128 117 104 95 99 127 126 60 25 55 50 36 41 56 68 62 50 63 23 51 6 32 48 43
94 92 69 48 337 35 352 45 192 109 341 49 130 94 81 124 121 125 135 134 161 149 136 129 59 63 59 50 58 52 44 62 56 59 47 27 352 29 42 10 61 59 40 32
15 101 343 141 320 1 111 209 44 0 86 318 4 111 205 158 116 51 88 63 79 83 62 66 71 76 60 44 59 53 46 53 45 52 31 6 345 41 56 90 77 68 52 33
13 86 265 37 35 34 11 23 36 85 112 146 358 306 70 75 84 71 68 69 78 71 68 73 65 63 62 50 55 50 29 4 31 20 352 353 345 88 108 132 155 147 150 15
13 128 71 115 85 351 346 83 92 108 317 47 142 273 96 86 56 54 65 72 81 83 84 80 54 42 45 52 35 346 329 333 237 260 276 299 327 165 169 186 186 150 127 269
351 32 59 10 3 322 44 109 113 110 97 187 123 261 189 85 55 61 123 80 69 68 54 39 20 10 6 15 359 338 332 297 279 284 298 309 284 252 241 266 321 139 135 265
57 81 143 173 175 147 359 335 141 131 114 211 203 250 300 89 41 68 55 50 69 67 50 25 7 351 351 347 347 340 339 312 290 283 253 251 258 251 239 50 11 298 4 289
78 97 36 352 337 329 327 311 312 286 228 154 245 229 104 121 122 96 80 71 63 53 33 27 353 334 333 357 1 342 332 336 330 297 306 266 306 80 58 331 343 311 255 295
28 194 75 323 35 16 314 297 285 279 290 301 11 79 131 124 95 81 71 68 54 30 23 2 336 322 354 4 333 339 347 341 347 340 329 350 64 54 305 298 245 249 286 306
79 118 76 252 359 354 3 246 272 356 11 98 323 132 105 63 50 81 77 57 49 26 4 325 308 316 348 327 2 14 343 324 335 353 4 360 6 347 294 243 270 322 319 293
116 85 88 213 19 39 231 332 16 109 52 9 81 78 74 68 86 93 76 69 24 339 294 302 307 336 333 12 20 340 332 347 353 20 350 338 7 352 338 299 284 275 268 290
108 108 79 114 210 297 325 69 88 97 307 57 93 73 68 49 119 114 132 135 246 285 285 276 297 318 12 27 348 341 336 338 351 348 353 353 347 337 355 346 303 286 279 95
44 87 108 88 134 209 228 122 84 61 267 75 98 70 42 52 92 257 338 329 8 324 318 339 354 16 35 338 318 315 316 328 21 7 350 349 310 301 268 253 270 295 59 94
43 351 142 170 210 284 251 163 120 104 233 132 118 117 94 130 191 241 290 310 342 310 341 8 18 26 311 311 306 309 301 349 41 336 319 307 295 284 274 307 9 5 87 88
164 151 195 192 191 272 221 121 151 202 148 152 118 127 102 77 299 284 308 351 324 336 3 360 24 341 312 303 333 330 359 339 345 339 330 335 338 325 352 355 353 73 87 74
181 184 180 177 211 226 208 188 176 143 133 152 138 119 101 243 242 280 325 315 350 8 333 10 356 319 312 5 352 359 345 7 344 342 348 336 333 339 352 16 45 69 76 74
273 174 191 109 241 230 165 95 110 113 119 117 109 117 214 249 242 329 347 4 14 4 11 335 336 335 339 335 343 345 315 304 354 12 357 352 360 353 352 24 59 85 73 60
208 350 209 253 276 91 45 102 115 111 118 147 160 201 196 93 25 47 37 22 15 353 341 348 342 341 327 345 345 325 303 320 66 24 352 352 339 343 337 34 67 110 69 152
205 199 166 234 220 154 139 137 140 152 165 186 157 90 52 63 64 55 33 17 7 352 346 346 340 329 324 341 329 326 316 139 130 51 327 304 314 340 1 45 41 41 180 230